Regional Weather Roundup
Issued by NWS Cleveland, OH

Home | Current Version | Previous Version | Text Only | Print | Product List | Glossary Off
Versions: 1 2 3 4 5 6 7 8 9 10 11 12 13 14 15 16 17 18 19 20 21 22 23 24 25 26 27 28 29 30 31 32 33 34 35 36 37 38 39 40 41 42 43 44 45 46 47 48 49 50

942
ASUS41 KCLE 241200
RWRCLE
OHIO REGIONAL WEATHER ROUNDUP
NATIONAL WEATHER SERVICE WILMINGTON, OH
700 AM EST FRI NOV 24 2017

NOTE: "FAIR" INDICATES FEW OR NO CLOUDS BELOW 12,000 FEET WITH NO
SIGNIFICANT WEATHER AND/OR OBSTRUCTIONS TO VISIBILITY.

OHZ001>008-015>018-024>027-034-035-043-044-241300-
   NORTHWEST OHIO

CITY           SKY/WX    TMP DP  RH WIND       PRES   REMARKS
DEFIANCE       FAIR      30  23  75 S6        29.90R WCI  24
FINDLAY        FAIR      31  23  72 S9        29.91S WCI  23
TOLEDO EXPRESS FAIR      32  26  78 S5        29.90R WCI  27
TOLEDO EXEC    FAIR      29  24  82 S6        29.92R WCI  23
LIMA           FAIR      32  25  75 S9        29.91S WCI  24
$$

OHZ009>014-019>023-028>033-038-089-241300-
   NORTHEAST OHIO

CITY           SKY/WX    TMP DP  RH WIND       PRES   REMARKS
CLE-HOPKINS    FAIR      34  24  67 S14       29.96F WCI  25
CLE-LAKEFRONT  FAIR      33  23  66 SE12      29.93F WCI  24
CUY CO. ARPT   CLEAR     34  23  64 S10       29.94  WCI  26
LORAIN-ELYRIA  FAIR      30  21  69 S10       29.94F WCI  21
ASHTABULA      FAIR      31  24  75 S9        29.95F WCI  23
AKRON-CANTON   FAIR      28  21  75 S8        29.97S WCI  20
WOOSTER        NOT AVBL
MANSFIELD      FAIR      30  23  75 S9        29.93F WCI  22
YOUNGSTOWN     FAIR      30  22  72 S9        29.96S WCI  22
$$

OHZ042-051>053-060>062-070>072-077>081-241300-
  SOUTHWEST OHIO

CITY           SKY/WX    TMP DP  RH WIND       PRES   REMARKS
CINC-COVINGTON FAIR      30  24  78 S8        29.96S WCI  22
CINC-LUNKEN    FAIR      26  25  96 CALM      30.01R
HAMILTON       FAIR      28  25  88 E5        29.98F WCI  23
DAYTON         NOT AVBL
WRIGHT-PAT AFB FAIR      31  24  77 CALM      29.95F
DAYTON GENERAL FAIR      30  23  75 S8        29.95F WCI  22
WILMINGTON     FAIR      30  24  78 S6        29.96F WCI  24
$$

OHZ036-037-039>041-045>050-054>059-063>069-073>076-082>088-241300-
  CENTRAL AND SOUTHEAST OHIO

CITY           SKY/WX    TMP DP  RH WIND       PRES   REMARKS
COLUMBUS       FAIR      29  24  82 CALM      29.98S
OSU AIRPORT    FAIR      29  24  82 S6        29.97S WCI  23
BOLTON FIELD   FAIR      28  23  84 S3        29.98S
RICKENBACK AFB NOT AVBL
NEWARK         FAIR      25  20  81 CALM      29.98S
MARION         FAIR      30  23  75 S12       29.94F WCI  20
LANCASTER      FAIR      24  21  88 CALM      29.99S
ZANESVILLE     FAIR      27  21  78 S3        29.99F
NEW PHILLY     FAIR      26  22  84 SE5       30.01R WCI  20
$$




USA.gov is the U.S. government's official web portal to all federal, state and local government web resources and services.